Regional Weather Roundup
Issued by NWS

Home | Current Version | Previous Version | Text Only | Print | Product List | Glossary Off
Versions: 1 2 3 4 5 6 7 8 9 10 11 12 13 14 15 16 17 18 19 20 21 22 23 24 25 26 27 28 29 30 31 32 33 34 35 36 37 38 39 40 41 42 43 44 45 46 47 48 49 50

000
ASUS45 KABQ 070001
RWRNM
WEATHER ROUNDUP FOR NEW MEXICO
NATIONAL WEATHER SERVICE ALBUQUERQUE NM
500 PM MST FRI MAR 06 2015

NOTE: "FAIR" MEANS FEW OR NO CLOUDS BELOW 12,000 FEET AGL WITH NO
       SIGNIFICANT WEATHER OR OBSTRUCTIONS TO VISION.

      THIS PRODUCT IS RELEASED AS TWO VERSIONS.  ONE VERSION NEAR
      THE TOP OF THE HOUR CONTAINING PRELIMINARY DATA FROM ALBUQUERQUE
      AND OTHER STATIONS.  A FINAL VERSION WITH ADDITIONAL DATA IS
      ISSUED ABOUT 10 MINUTES AFTER THE HOUR.

NMZ501-503-504-510>518-070100-
NORTHWEST PLATEAU/NORTHCENTRAL MOUNTAINS

CITY           SKY/WX    TMP DP  RH WIND       PRES   REMARKS
FARMINGTON     SUNNY     52  15  23 W7        30.28F
6HR MIN TEMP:  42; 6HR MAX TEMP:  54;

SANTA FE       SUNNY     55   2  11 SW7       30.27F
6HR MIN TEMP:  45; 6HR MAX TEMP:  57;

TAOS           SUNNY     50  10  20 CALM      30.31S

$$
NMZ402-403-502-505>509-070100-
WESTCENTRAL MOUNTAINS/SOUTHWEST MOUNTAINS

CITY           SKY/WX    TMP DP  RH WIND       PRES   REMARKS
GALLUP         SUNNY     53  13  20 N14       30.28F
6HR MIN TEMP:  46; 6HR MAX TEMP:  56;

GRANTS         SUNNY     57   4  12 S7        30.28S

$$
NMZ407-409-411-412-070100-
SOUTHERN DESERTS

CITY           SKY/WX    TMP DP  RH WIND       PRES   REMARKS
DEMING         SUNNY     61   5  10 E15       30.20F
6HR MIN TEMP:  51; 6HR MAX TEMP:  62;

ALAMOGORDO     SUNNY     61   9  12 CALM      30.25F
T OR C         SUNNY     61   6  11 CALM      30.23F
6HR MIN TEMP:  51; 6HR MAX TEMP:  62;


$$
NMZ519>523-070100-
CENTRAL VALLEYS/CENTRAL HIGHLANDS

CITY           SKY/WX    TMP DP  RH WIND       PRES   REMARKS
ALBUQUERQUE    SUNNY     58   4  11 S3        30.26F
6HR MIN TEMP:  47; 6HR MAX TEMP:  60;

DOUBLE EAGLE   SUNNY     57  10  15 S3        30.28S
MORIARTY ARPT  FAIR      60   5  11 CALM      30.27F
6HR MIN TEMP:  49; 6HR MAX TEMP:  62;

CLINES CORNERS SUNNY     56   7  14 SW7       30.27F
6HR MIN TEMP:  47; 6HR MAX TEMP:  57;

BELEN          FAIR      58   7  13 CALM      30.26F
6HR MIN TEMP:  47; 6HR MAX TEMP:  60;

SOCORRO          N/A     61   6  11 CALM      30.25S
6HR MIN TEMP:  51; 6HR MAX TEMP:  62;


$$
NMZ524>526-539-540-070100-
SOUTHCENTRAL MOUNTAINS

CITY           SKY/WX    TMP DP  RH WIND       PRES   REMARKS
RUIDOSO        NOT AVBL

$$
NMZ527>531-070100-
NORTHEAST HIGHLANDS/NORTHEAST PLAINS

CITY           SKY/WX    TMP DP  RH WIND       PRES   REMARKS
LAS VEGAS      SUNNY     54  11  18 S18       30.25F
6HR MIN TEMP:  48; 6HR MAX TEMP:  56;

RATON          SUNNY     55  21  26 SW10      30.24S
6HR MIN TEMP:  46; 6HR MAX TEMP:  56;

CLAYTON        CLEAR     57  21  24 S8        30.24S
6HR MIN TEMP:  50; 6HR MAX TEMP:  59;


$$
NMZ532>537-070100-
EASTCENTRAL PLAINS

CITY           SKY/WX    TMP DP  RH WIND       PRES   REMARKS
TUCUMCARI      SUNNY     63  24  22 S10       30.22S
6HR MIN TEMP:  48; 6HR MAX TEMP:  65;

CANNON AFB     NOT AVBL
CLOVIS AIRPORT CLEAR     59  18  20 SW9       30.26F

$$
NMZ028-029-538-070100-
SOUTHEAST PLAINS

CITY           SKY/WX    TMP DP  RH WIND       PRES   REMARKS
ROSWELL        SUNNY     60  16  18 S13       30.27F
6HR MIN TEMP:  32; 6HR MAX TEMP:  60;

ARTESIA        SUNNY     57   9  14 S15       30.28F
CARLSBAD       SUNNY     56  22  26 S10       30.28S
6HR MIN TEMP:  33; 6HR MAX TEMP:  58;

HOBBS          SUNNY     55  23  28 SE10      30.31S


$$


USA.gov is the U.S. government's official web portal to all federal, state and local government web resources and services.